Weather History for Rockport, TX

Change the Weather History Date:

Sunday, December 16, 2012

  Actual Average Record
Temperature  
Mean Temperature 72 °F -  
Max Temperature 79 °F 65 °F 80 °F (1980)
Min Temperature 64 °F 45 °F 20 °F (1989)
Cooling Degree Days 8    
Growing Degree Days 22 (Base 50)    
Moisture  
Dew Point 69 °F    
Average Humidity 88    
Maximum Humidity 96    
Minimum Humidity 75    
Precipitation  
Precipitation 0.00 in - - ()
Sea Level Pressure  
Sea Level Pressure 29.80 in    
Wind  
Wind Speed 7 mph (South)    
Max Wind Speed 10 mph    
Max Gust Speed 18 mph    
Visibility 6 miles    
Events Rain    
Averages and records for this station are not official NWS values.
T = Trace of Precipitation, MM = Missing Value Source: NWS Daily Summary

Daily Weather History Graph

Daily Weather History Graph

Search for Another Location

Airport:

Trip Planner

Search our weather history database for the weather conditions in past years. The results will help you decide how hot, cold, wet, or windy it might be!

Date:

Astronomy

Dec. 16, 2012 Rise Set
Actual Time 7:13 AM CST 5:35 PM CST
Civil Twilight 6:47 AM CST 6:00 PM CST
Nautical Twilight 6:17 AM CST 6:30 PM CST
Astronomical Twilight 5:49 AM CST 6:59 PM CST
Moon 10:01 AM CST (12/16) 9:34 PM CST (12/16)
Length of Visible Light 11h 13m
Length of Day
10h 22m
Waxing Crescent, 16% of the Moon is Illuminated
Dec 16
Waxing Crescent
Dec 19
First Quarter
Dec 28
Full
Jan 4
Last Quarter
Jan 11
New

Hourly Weather History & Observations

Time (CST) Temp. Dew Point Humidity Pressure Visibility Wind Dir Wind Speed Gust Speed Precip Events Conditions
12:53 AM 71.1 °F 69.1 °F 93% 29.85 in 6.0 mi South 6.9 mph - N/A   Overcast
1:53 AM 71.1 °F 70.0 °F 96% 29.83 in 6.0 mi South 5.8 mph - N/A   Overcast
2:06 AM 71.6 °F 69.8 °F 94% 29.81 in 6.0 mi SSE 6.9 mph - N/A   Overcast
2:53 AM 71.1 °F 70.0 °F 96% 29.80 in 6.0 mi SSE 9.2 mph 17.3 mph N/A   Overcast
3:01 AM 71.6 °F 69.8 °F 94% 29.79 in 6.0 mi SSE 8.1 mph 18.4 mph N/A   Overcast
3:09 AM 71.6 °F 69.8 °F 94% 29.79 in 6.0 mi South 9.2 mph - N/A   Overcast
3:19 AM 71.6 °F 69.8 °F 94% 29.79 in 7.0 mi SSE 8.1 mph - N/A   Overcast
3:28 AM 71.6 °F 69.8 °F 94% 29.79 in 7.0 mi SSE 8.1 mph 17.3 mph N/A   Overcast
3:37 AM 71.6 °F 69.8 °F 94% 29.79 in 7.0 mi South 8.1 mph - N/A   Overcast
3:53 AM 71.1 °F 69.1 °F 93% 29.80 in 7.0 mi South 8.1 mph - N/A   Overcast
4:02 AM 71.6 °F 69.8 °F 94% 29.80 in 7.0 mi South 8.1 mph - N/A   Overcast
4:53 AM 71.1 °F 69.1 °F 93% 29.80 in 7.0 mi SSE 6.9 mph - N/A   Mostly Cloudy
5:16 AM 71.6 °F 69.8 °F 94% 29.79 in 7.0 mi SSE 8.1 mph - N/A   Overcast
5:53 AM 71.1 °F 69.1 °F 93% 29.80 in 6.0 mi South 4.6 mph - N/A   Overcast
6:00 AM 71.6 °F 69.8 °F 94% 29.80 in 6.0 mi South 5.8 mph - N/A   Overcast
6:23 AM 71.6 °F 69.8 °F 94% 29.81 in 7.0 mi South 5.8 mph - N/A   Overcast
6:53 AM 72.0 °F 70.0 °F 93% 29.83 in 7.0 mi South 4.6 mph - N/A   Overcast
7:31 AM 71.6 °F 69.8 °F 94% 29.83 in 7.0 mi SW 3.5 mph - N/A   Overcast
7:53 AM 72.0 °F 70.0 °F 93% 29.86 in 5.0 mi WSW 3.5 mph - 0.00 in   Overcast
8:53 AM 73.0 °F 71.1 °F 93% 29.86 in 4.0 mi South 3.5 mph - N/A   Overcast
9:53 AM 73.9 °F 71.1 °F 91% 29.87 in 4.0 mi Calm Calm - 0.00 in   Overcast
10:16 AM 73.4 °F 71.6 °F 94% 29.85 in 4.0 mi South 5.8 mph - 0.00 in Rain Light Rain
10:31 AM 73.4 °F 71.6 °F 94% 29.84 in 5.0 mi South 4.6 mph - 0.00 in Rain Light Rain
10:42 AM 73.4 °F 71.6 °F 94% 29.84 in 6.0 mi South 8.1 mph - 0.00 in   Mostly Cloudy
10:53 AM 75.0 °F 72.0 °F 90% 29.85 in 6.0 mi South 6.9 mph - 0.00 in   Mostly Cloudy
11:28 AM 77.0 °F 71.6 °F 83% 29.82 in 6.0 mi South 9.2 mph - N/A   Haze
11:39 AM 77.0 °F 71.6 °F 83% 29.81 in 6.0 mi South 8.1 mph - N/A   Haze
11:53 AM 78.1 °F 71.1 °F 79% 29.81 in 7.0 mi South 10.4 mph - N/A   Mostly Cloudy
12:53 PM 77.0 °F 71.1 °F 82% 29.76 in 6.0 mi South 8.1 mph - N/A   Haze
1:00 PM 77.0 °F 71.6 °F 83% 29.76 in 6.0 mi South 9.2 mph - N/A   Haze
1:25 PM 78.8 °F 71.6 °F 78% 29.75 in 6.0 mi South 9.2 mph - N/A   Haze
1:33 PM 78.8 °F 71.6 °F 78% 29.75 in 6.0 mi South 6.9 mph - N/A   Haze
1:53 PM 79.0 °F 71.1 °F 77% 29.75 in 6.0 mi Variable 6.9 mph - N/A   Haze
2:18 PM 78.8 °F 71.6 °F 78% 29.72 in 5.0 mi SSE 10.4 mph - N/A   Haze
2:53 PM 78.1 °F 70.0 °F 76% 29.74 in 5.0 mi Variable 4.6 mph - N/A   Haze
3:53 PM 77.0 °F 70.0 °F 79% 29.75 in 4.0 mi South 5.8 mph - N/A   Haze
4:53 PM 75.9 °F 70.0 °F 82% 29.76 in 4.0 mi NNW 3.5 mph - N/A   Haze
5:53 PM 72.0 °F 68.0 °F 87% 29.78 in 5.0 mi Calm Calm - N/A   Overcast
6:53 PM 73.0 °F 66.9 °F 81% 29.79 in 8.0 mi NNE 5.8 mph - N/A   Mostly Cloudy
7:53 PM 71.1 °F 64.9 °F 81% 29.80 in 9.0 mi NE 5.8 mph - N/A   Mostly Cloudy
8:53 PM 70.0 °F 64.9 °F 84% 29.83 in 8.0 mi NNE 4.6 mph - N/A   Partly Cloudy
9:53 PM 66.9 °F 60.1 °F 79% 29.84 in 10.0 mi Calm Calm - N/A   Clear
10:53 PM 66.0 °F 59.0 °F 78% 29.85 in 10.0 mi NNW 4.6 mph - N/A   Clear
11:53 PM 64.9 °F 57.0 °F 75% 29.87 in 10.0 mi NNW 4.6 mph - N/A   Scattered Clouds